| time (UTC) | temp C | wind direction | speed KPH | gust KPH | rain 1hr cm | rain 24hr cm | rain mn cm | humidity % | barometer mb |
| 20260506033221 | 12 | 242 | 4.8 | 8.0 | 0.00 | 0.00 | 0.00 | 79 | 1014.8 |
| 20260506032721 | 12 | 242 | 6.4 | 8.0 | 0.00 | 0.00 | 0.00 | 78 | 1014.8 |
| 20260506032220 | 12 | 239 | 6.4 | 9.7 | 0.00 | 0.00 | 0.00 | 78 | 1014.6 |
| 20260506031720 | 12 | 251 | 6.4 | 9.7 | 0.00 | 0.00 | 0.00 | 78 | 1014.5 |
| 20260506031221 | 12 | 200 | 3.2 | 9.7 | 0.00 | 0.00 | 0.00 | 77 | 1014.4 |
| 20260506030721 | 12 | 134 | 3.2 | 16.1 | 0.00 | 0.00 | 0.00 | 77 | 1014.4 |
| 20260506030221 | 12 | 249 | 6.4 | 16.1 | 0.00 | 0.00 | 0.00 | 76 | 1014.3 |
| 20260506025721 | 12 | 271 | 9.7 | 16.1 | 0.00 | 0.00 | 0.00 | 76 | 1014.3 |
| 20260506025220 | 12 | 267 | 11.3 | 16.1 | 0.00 | 0.00 | 0.00 | 77 | 1014.2 |
| 20260506024720 | 12 | 280 | 9.7 | 16.1 | 0.00 | 0.00 | 0.00 | 77 | 1014.1 |
| 20260506024225 | 12 | 286 | 11.3 | 16.1 | 0.00 | 0.00 | 0.00 | 78 | 1014.0 |
| 20260506024220 | 12 | 281 | 11.3 | 16.1 | 0.00 | 0.00 | 0.00 | 78 | 1014.0 |
| 20260506023221 | 12 | 291 | 9.7 | 16.1 | 0.00 | 0.00 | 0.00 | 80 | 1013.9 |
| 20260506022719 | 12 | 297 | 8.0 | 16.1 | 0.00 | 0.00 | 0.00 | 81 | 1013.8 |
| 20260506022219 | 12 | 296 | 8.0 | 16.1 | 0.00 | 0.00 | 0.00 | 80 | 1013.8 |
| 20260506021719 | 12 | 295 | 8.0 | 16.1 | 0.00 | 0.00 | 0.00 | 80 | 1013.8 |
| 20260506021219 | 12 | 289 | 6.4 | 14.5 | 0.00 | 0.00 | 0.00 | 80 | 1013.8 |
| 20260506020719 | 12 | 297 | 6.4 | 14.5 | 0.00 | 0.00 | 0.00 | 80 | 1013.8 |
| 20260506020218 | 12 | 324 | 4.8 | 14.5 | 0.00 | 0.00 | 0.00 | 80 | 1013.7 |
| 20260506015718 | 12 | 250 | 6.4 | 14.5 | 0.00 | 0.00 | 0.00 | 81 | 1013.7 |
| 20260506015218 | 12 | 255 | 4.8 | 14.5 | 0.00 | 0.00 | 0.00 | 83 | 1013.6 |
| 20260506014718 | 12 | 195 | 3.2 | 9.7 | 0.00 | 0.00 | 0.00 | 85 | 1013.7 |
| 20260506014220 | 11 | 215 | 1.6 | 11.3 | 0.00 | 0.00 | 0.00 | 87 | 1013.6 |
| 20260506014216 | 11 | 259 | 1.6 | 9.7 | 0.00 | 0.00 | 0.00 | 86 | 1013.7 |
| 20260506013221 | 11 | 215 | 4.8 | 11.3 | 0.00 | 0.00 | 0.00 | 88 | 1013.7 |
| 20260506013217 | 11 | 198 | 1.6 | 11.3 | 0.00 | 0.00 | 0.00 | 88 | 1013.7 |
| 20260506012823 | 11 | 180 | 6.4 | 11.3 | 0.00 | 0.00 | 0.00 | 87 | 1013.6 |
| 20260506011717 | 11 | 165 | 8.0 | 12.9 | 0.00 | 0.00 | 0.00 | 87 | 1013.7 |
| 20260506011221 | 12 | 203 | 6.4 | 11.3 | 0.00 | 0.00 | 0.00 | 84 | 1013.6 |
| 20260506011217 | 11 | 179 | 8.0 | 12.9 | 0.00 | 0.00 | 0.00 | 86 | 1013.6 |
| 20260506010217 | 12 | 194 | 6.4 | 11.3 | 0.00 | 0.00 | 0.00 | 83 | 1013.6 |
| 20260506005721 | 12 | 184 | 6.4 | 12.9 | 0.00 | 0.00 | 0.00 | 84 | 1013.6 |
| 20260506005717 | 12 | 173 | 6.4 | 11.3 | 0.00 | 0.00 | 0.00 | 84 | 1013.6 |
| 20260506004716 | 11 | 201 | 8.0 | 12.9 | 0.00 | 0.00 | 0.00 | 85 | 1013.5 |
| 20260506004221 | 11 | 198 | 4.8 | 8.0 | 0.00 | 0.00 | 0.00 | 89 | 1013.4 |
| 20260506004217 | 11 | 193 | 6.4 | 11.3 | 0.00 | 0.00 | 0.00 | 88 | 1013.5 |
| 20260506003217 | 11 | 211 | 4.8 | 8.0 | 0.00 | 0.00 | 0.00 | 89 | 1013.4 |
| 20260506002720 | 11 | 222 | 6.4 | 9.7 | 0.00 | 0.00 | 0.00 | 91 | 1013.5 |
| 20260506002716 | 11 | 216 | 4.8 | 8.0 | 0.00 | 0.00 | 0.00 | 91 | 1013.4 |
| 20260506001717 | 11 | 220 | 6.4 | 9.7 | 0.00 | 0.00 | 0.00 | 91 | 1013.5 |
| 20260506001216 | 11 | 218 | 6.4 | 9.7 | 0.00 | 0.00 | 0.00 | 91 | 1013.4 |
| 20260506000716 | 11 | 217 | 6.4 | 12.9 | 0.00 | 0.00 | 0.00 | 91 | 1013.4 |
| 20260506000214 | 11 | 205 | 6.4 | 12.9 | 0.00 | 0.00 | 0.00 | 91 | 1013.4 |
| 20260505235714 | 11 | 192 | 8.0 | 12.9 | 0.00 | 0.00 | 0.00 | 91 | 1013.2 |
| 20260505235213 | 10 | 190 | 8.0 | 12.9 | 0.00 | 0.00 | 0.00 | 91 | 1013.4 |
| 20260505234714 | 10 | 196 | 8.0 | 12.9 | 0.00 | 0.00 | 0.00 | 90 | 1013.2 |
| 20260505234214 | 10 | 191 | 9.7 | 17.7 | 0.00 | 0.00 | 0.00 | 90 | 1013.4 |
| 20260505233718 | 11 | 201 | 12.9 | 25.7 | 0.00 | 0.00 | 0.00 | 88 | 1013.4 |
| 20260505233714 | 11 | 182 | 11.3 | 19.3 | 0.00 | 0.00 | 0.00 | 89 | 1013.2 |
| 20260505232716 | 12 | 197 | 14.5 | 25.7 | 0.00 | 0.00 | 0.00 | 87 | 1013.2 |
| 20260505232712 | 12 | 186 | 14.5 | 24.1 | 0.00 | 0.00 | 0.00 | 87 | 1013.2 |
| 20260505232319 | 12 | 184 | 14.5 | 25.7 | 0.00 | 0.00 | 0.00 | 87 | 1013.2 |
| 20260505231212 | 12 | 178 | 14.5 | 25.7 | 0.00 | 0.00 | 0.00 | 87 | 1013.2 |
| 20260505230712 | 12 | 188 | 14.5 | 22.5 | 0.00 | 0.00 | 0.00 | 86 | 1013.2 |
| 20260505230212 | 12 | 169 | 14.5 | 22.5 | 0.00 | 0.00 | 0.00 | 86 | 1013.2 |
| 20260505225712 | 12 | 213 | 14.5 | 24.1 | 0.00 | 0.00 | 0.00 | 86 | 1013.4 |
| 20260505225213 | 11 | 191 | 16.1 | 25.7 | 0.00 | 0.00 | 0.00 | 87 | 1013.4 |
| 20260505224712 | 11 | 167 | 16.1 | 29.0 | 0.00 | 0.00 | 0.00 | 86 | 1013.4 |
| 20260505224213 | 12 | 157 | 16.1 | 29.0 | 0.00 | 0.00 | 0.00 | 84 | 1013.2 |
| 20260505223716 | 13 | 186 | 17.7 | 29.0 | 0.00 | 0.00 | 0.00 | 83 | 1013.2 |
| 20260505223712 | 13 | 171 | 16.1 | 29.0 | 0.00 | 0.00 | 0.00 | 83 | 1013.4 |
| 20260505222711 | 13 | 180 | 16.1 | 29.0 | 0.00 | 0.00 | 0.00 | 82 | 1013.4 |
| 20260505222211 | 13 | 169 | 16.1 | 29.0 | 0.00 | 0.00 | 0.00 | 82 | 1013.4 |
| 20260505221711 | 12 | 177 | 14.5 | 29.0 | 0.00 | 0.00 | 0.00 | 82 | 1013.6 |
| 20260505221211 | 12 | 199 | 12.9 | 22.5 | 0.00 | 0.00 | 0.00 | 85 | 1013.5 |
| 20260505220711 | 12 | 155 | 11.3 | 22.5 | 0.00 | 0.00 | 0.00 | 86 | 1013.6 |
| 20260505220211 | 11 | 184 | 11.3 | 19.3 | 0.00 | 0.00 | 0.00 | 85 | 1013.7 |
| 20260505215711 | 11 | 211 | 12.9 | 22.5 | 0.00 | 0.00 | 0.00 | 84 | 1013.7 |
| 20260505215211 | 10 | 205 | 14.5 | 22.5 | 0.00 | 0.00 | 0.00 | 84 | 1013.7 |
| 20260505214712 | 10 | 220 | 16.1 | 22.5 | 0.00 | 0.00 | 0.00 | 85 | 1013.8 |
| 20260505214211 | 10 | 202 | 16.1 | 20.9 | 0.00 | 0.00 | 0.00 | 87 | 1013.7 |
| 20260505213711 | 10 | 209 | 16.1 | 19.3 | 0.00 | 0.00 | 0.00 | 88 | 1013.8 |
| 20260505213208 | 10 | 201 | 14.5 | 19.3 | 0.00 | 0.00 | 0.00 | 88 | 1013.8 |
| 20260505212708 | 10 | 209 | 14.5 | 19.3 | 0.00 | 0.00 | 0.00 | 89 | 1013.9 |
| 20260505212214 | 10 | 196 | 16.1 | 19.3 | 0.00 | 0.00 | 0.00 | 85 | 1013.9 |
| 20260505212208 | 10 | 200 | 14.5 | 19.3 | 0.00 | 0.00 | 0.00 | 87 | 1013.9 |
| 20260505211815 | 10 | 199 | 14.5 | 19.3 | 0.00 | 0.00 | 0.00 | 83 | 1014.0 |
| 20260505211315 | 11 | 205 | 14.5 | 19.3 | 0.00 | 0.00 | 0.00 | 82 | 1014.0 |
| 20260505210208 | 11 | 190 | 14.5 | 20.9 | 0.00 | 0.00 | 0.00 | 80 | 1013.9 |
| 20260505205708 | 11 | 194 | 16.1 | 25.7 | 0.00 | 0.00 | 0.00 | 81 | 1013.9 |
| 20260505205208 | 11 | 175 | 17.7 | 27.4 | 0.00 | 0.00 | 0.00 | 81 | 1013.9 |
| 20260505204708 | 11 | 190 | 17.7 | 27.4 | 0.00 | 0.00 | 0.00 | 80 | 1014.0 |
| 20260505204208 | 11 | 184 | 17.7 | 27.4 | 0.00 | 0.00 | 0.00 | 79 | 1013.9 |
| 20260505203708 | 12 | 178 | 19.3 | 27.4 | 0.00 | 0.00 | 0.00 | 77 | 1013.8 |
| 20260505203208 | 12 | 188 | 17.7 | 32.2 | 0.00 | 0.00 | 0.00 | 74 | 1013.8 |
| 20260505202708 | 13 | 174 | 16.1 | 32.2 | 0.00 | 0.00 | 0.00 | 77 | 1013.7 |
| 20260505202214 | 12 | 188 | 17.7 | 25.7 | 0.00 | 0.00 | 0.00 | 82 | 1013.7 |
| 20260505202208 | 12 | 185 | 17.7 | 25.7 | 0.00 | 0.00 | 0.00 | 80 | 1013.7 |
| 20260505201208 | 12 | 192 | 16.1 | 24.1 | 0.00 | 0.00 | 0.00 | 82 | 1013.8 |
| 20260505200707 | 12 | 192 | 16.1 | 27.4 | 0.00 | 0.00 | 0.00 | 81 | 1013.8 |
| 20260505200205 | 12 | 205 | 16.1 | 27.4 | 0.00 | 0.00 | 0.00 | 82 | 1013.8 |
| 20260505195706 | 12 | 182 | 17.7 | 29.0 | 0.00 | 0.00 | 0.00 | 83 | 1013.8 |
| 20260505195211 | 11 | 196 | 16.1 | 25.7 | 0.00 | 0.00 | 0.00 | 83 | 1013.8 |
| 20260505195205 | 11 | 175 | 17.7 | 29.0 | 0.00 | 0.00 | 0.00 | 83 | 1013.7 |
| 20260505194206 | 11 | 190 | 14.5 | 20.9 | 0.00 | 0.00 | 0.00 | 80 | 1013.9 |
| 20260505193712 | 12 | 183 | 16.1 | 25.7 | 0.00 | 0.00 | 0.00 | 77 | 1014.0 |
| 20260505193706 | 12 | 175 | 14.5 | 22.5 | 0.00 | 0.00 | 0.00 | 79 | 1014.0 |
| 20260505192706 | 12 | 209 | 14.5 | 25.7 | 0.00 | 0.00 | 0.00 | 77 | 1014.0 |
| 20260505192207 | 13 | 196 | 12.9 | 27.4 | 0.00 | 0.00 | 0.00 | 77 | 1014.0 |
| 20260505192203 | 13 | 209 | 12.9 | 27.4 | 0.00 | 0.00 | 0.00 | 76 | 1014.0 |
| 20260505191204 | 12 | 167 | 12.9 | 24.1 | 0.00 | 0.00 | 0.00 | 78 | 1014.0 |
| 20260505190704 | 12 | 182 | 12.9 | 24.1 | 0.00 | 0.00 | 0.00 | 79 | 1013.9 |
| 20260505190204 | 11 | 208 | 14.5 | 20.9 | 0.00 | 0.00 | 0.00 | 82 | 1014.0 |
| 20260505185707 | 11 | 178 | 11.3 | 17.7 | 0.00 | 0.00 | 0.00 | 78 | 1014.1 |
| 20260505185703 | 11 | 168 | 12.9 | 20.9 | 0.00 | 0.00 | 0.00 | 82 | 1014.0 |
| 20260505184703 | 12 | 173 | 11.3 | 20.9 | 0.00 | 0.00 | 0.00 | 81 | 1014.0 |
| 20260505184204 | 12 | 142 | 11.3 | 20.9 | 0.00 | 0.00 | 0.00 | 80 | 1013.9 |
| 20260505183703 | 12 | 147 | 9.7 | 17.7 | 0.00 | 0.00 | 0.00 | 80 | 1014.0 |
| 20260505183208 | 12 | 205 | 8.0 | 19.3 | 0.00 | 0.00 | 0.00 | 83 | 1013.9 |
| 20260505183204 | 12 | 171 | 9.7 | 19.3 | 0.00 | 0.00 | 0.00 | 81 | 1013.9 |
| 20260505182207 | 11 | 188 | 8.0 | 14.5 | 0.00 | 0.00 | 0.00 | 82 | 1013.9 |
| 20260505182203 | 11 | 202 | 8.0 | 14.5 | 0.00 | 0.00 | 0.00 | 83 | 1013.9 |
| 20260505181811 | 11 | 161 | 9.7 | 14.5 | 0.00 | 0.00 | 0.00 | 82 | 1014.0 |
| 20260505180708 | 12 | 192 | 9.7 | 16.1 | 0.00 | 0.00 | 0.00 | 81 | 1013.9 |
| 20260505180704 | 11 | 196 | 9.7 | 14.5 | 0.00 | 0.00 | 0.00 | 81 | 1013.9 |
| 20260505175708 | 12 | 178 | 8.0 | 14.5 | 0.00 | 0.00 | 0.00 | 83 | 1013.9 |
| 20260505175704 | 12 | 180 | 9.7 | 16.1 | 0.00 | 0.00 | 0.00 | 81 | 1013.8 |
| 20260505174703 | 12 | 186 | 8.0 | 16.1 | 0.00 | 0.00 | 0.00 | 85 | 1013.7 |
| 20260505174203 | 12 | 196 | 8.0 | 16.1 | 0.00 | 0.00 | 0.00 | 85 | 1013.6 |
| 20260505173704 | 12 | 180 | 8.0 | 14.5 | 0.00 | 0.00 | 0.00 | 86 | 1013.6 |
| 20260505173203 | 11 | 183 | 8.0 | 14.5 | 0.00 | 0.00 | 0.00 | 87 | 1013.7 |
| 20260505172703 | 11 | 198 | 8.0 | 14.5 | 0.00 | 0.00 | 0.00 | 87 | 1013.5 |
| 20260505172204 | 11 | 215 | 6.4 | 11.3 | 0.00 | 0.00 | 0.00 | 87 | 1013.5 |
| 20260505172200 | 11 | 207 | 8.0 | 12.9 | 0.00 | 0.00 | 0.00 | 87 | 1013.5 |
| 20260505171808 | 11 | 169 | 4.8 | 9.7 | 0.00 | 0.00 | 0.00 | 85 | 1013.6 |
| 20260505170700 | 11 | 193 | 3.2 | 11.3 | 0.00 | 0.00 | 0.00 | 85 | 1013.5 |
| 20260505170201 | 11 | 217 | 3.2 | 11.3 | 0.00 | 0.00 | 0.00 | 84 | 1013.6 |
| 20260505165701 | 12 | 171 | 3.2 | 8.0 | 0.00 | 0.00 | 0.00 | 83 | 1013.4 |
| 20260505165201 | 12 | 130 | 4.8 | 11.3 | 0.00 | 0.00 | 0.00 | 84 | 1013.4 |
| 20260505164701 | 12 | 141 | 3.2 | 11.3 | 0.00 | 0.00 | 0.00 | 83 | 1013.1 |
| 20260505164206 | 12 | 162 | 0.0 | 6.4 | 0.00 | 0.00 | 0.00 | 78 | 1013.1 |
| 20260505164201 | 12 | 171 | 1.6 | 8.0 | 0.00 | 0.00 | 0.00 | 80 | 1013.2 |
| 20260505163201 | 12 | 161 | 0.0 | 4.8 | 0.00 | 0.00 | 0.00 | 80 | 1013.2 |
| 20260505162701 | 11 | 133 | 0.0 | 4.8 | 0.00 | 0.00 | 0.00 | 78 | 1013.2 |
| 20260505162205 | 12 | 191 | 1.6 | 6.4 | 0.00 | 0.00 | 0.00 | 78 | 1013.0 |
| 20260505162201 | 12 | 186 | 1.6 | 6.4 | 0.00 | 0.00 | 0.00 | 81 | 1013.0 |
| 20260505161201 | 12 | 197 | 0.0 | 4.8 | 0.00 | 0.00 | 0.00 | 76 | 1012.9 |
| 20260505160701 | 12 | 180 | 1.6 | 4.8 | 0.00 | 0.00 | 0.00 | 76 | 1012.8 |
| 20260505160201 | 11 | 226 | 3.2 | 11.3 | 0.00 | 0.00 | 0.00 | 73 | 1012.9 |
| 20260505153159 | 11 | 249 | 1.6 | 11.3 | 0.00 | 0.00 | 0.00 | 71 | 1012.8 |
| 20260505152700 | 11 | 252 | 1.6 | 6.4 | 0.00 | 0.00 | 0.00 | 73 | 1012.7 |
| 20260505152200 | 11 | 213 | 1.6 | 8.0 | 0.00 | 0.00 | 0.00 | 77 | 1012.8 |
| 20260505151659 | 11 | 189 | 3.2 | 9.7 | 0.00 | 0.00 | 0.00 | 77 | 1012.8 |
| 20260505151203 | 11 | 192 | 1.6 | 4.8 | 0.00 | 0.00 | 0.00 | 80 | 1012.7 |
| 20260505151159 | 11 | 169 | 1.6 | 9.7 | 0.00 | 0.00 | 0.00 | 80 | 1012.7 |
| 20260505150159 | 10 | 186 | 3.2 | 8.0 | 0.00 | 0.00 | 0.00 | 81 | 1012.7 |
| 20260505130152 | 9 | 269 | 19.3 | 24.1 | 0.00 | 0.00 | 0.00 | 85 | 1012.0 |
| 20260505124656 | 9 | 256 | 11.3 | 19.3 | 0.00 | 0.00 | 0.00 | 83 | 1012.1 |
| 20260505124652 | 9 | 254 | 11.3 | 17.7 | 0.00 | 0.00 | 0.00 | 84 | 1012.0 |
| 20260505123651 | 9 | 264 | 12.9 | 19.3 | 0.00 | 0.00 | 0.00 | 83 | 1012.1 |
| 20260505123149 | 9 | 274 | 14.5 | 19.3 | 0.00 | 0.00 | 0.00 | 82 | 1012.1 |
| 20260505122649 | 9 | 279 | 14.5 | 19.3 | 0.00 | 0.00 | 0.00 | 82 | 1012.0 |
| 20260505122149 | 9 | 277 | 12.9 | 20.9 | 0.00 | 0.00 | 0.00 | 81 | 1012.0 |
| 20260505121649 | 9 | 282 | 11.3 | 20.9 | 0.00 | 0.00 | 0.00 | 81 | 1012.0 |
| 20260505121149 | 9 | 288 | 9.7 | 16.1 | 0.00 | 0.00 | 0.00 | 81 | 1012.0 |
| 20260505120649 | 9 | 296 | 9.7 | 14.5 | 0.00 | 0.00 | 0.00 | 81 | 1012.0 |
| 20260505120148 | 9 | 284 | 9.7 | 14.5 | 0.00 | 0.00 | 0.00 | 83 | 1012.0 |
| 20260505115649 | 9 | 273 | 11.3 | 14.5 | 0.00 | 0.00 | 0.00 | 84 | 1012.2 |
| 20260505115148 | 9 | 277 | 11.3 | 14.5 | 0.00 | 0.00 | 0.00 | 84 | 1012.2 |
| 20260505114648 | 9 | 270 | 8.0 | 14.5 | 0.00 | 0.00 | 0.00 | 86 | 1012.3 |
| 20260505114148 | 9 | 278 | 3.2 | 9.7 | 0.00 | 0.00 | 0.00 | 87 | 1012.3 |
| 20260505113649 | 9 | 220 | 4.8 | 8.0 | 0.00 | 0.00 | 0.00 | 86 | 1012.2 |
| 20260505113149 | 9 | 193 | 6.4 | 8.0 | 0.00 | 0.00 | 0.00 | 86 | 1012.2 |
| 20260505112649 | 9 | 203 | 6.4 | 11.3 | 0.00 | 0.00 | 0.00 | 86 | 1012.1 |
| 20260505112155 | 9 | 204 | 9.7 | 12.9 | 0.00 | 0.00 | 0.00 | 85 | 1012.2 |
| 20260505112149 | 9 | 204 | 8.0 | 11.3 | 0.00 | 0.00 | 0.00 | 85 | 1012.2 |
| 20260505111756 | 9 | 198 | 9.7 | 12.9 | 0.00 | 0.00 | 0.00 | 84 | 1012.1 |
| 20260505110649 | 9 | 200 | 9.7 | 11.3 | 0.00 | 0.00 | 0.00 | 84 | 1012.2 |
| 20260505110148 | 9 | 209 | 8.0 | 11.3 | 0.00 | 0.00 | 0.00 | 83 | 1012.2 |
| 20260505101642 | 9 | 278 | 6.4 | 11.3 | 0.00 | 0.00 | 0.00 | 87 | 1012.3 |
| 20260505101142 | 9 | 247 | 3.2 | 8.0 | 0.00 | 0.00 | 0.00 | 88 | 1012.3 |
| 20260505100646 | 9 | 189 | 1.6 | 4.8 | 0.00 | 0.00 | 0.00 | 89 | 1012.4 |
| 20260505100642 | 9 | 202 | 0.0 | 4.8 | 0.00 | 0.00 | 0.00 | 89 | 1012.4 |
| 20260505095642 | 9 | 189 | 1.6 | 4.8 | 0.00 | 0.00 | 0.00 | 89 | 1012.4 |
| 20260505095142 | 9 | 190 | 1.6 | 4.8 | 0.00 | 0.00 | 0.00 | 88 | 1012.5 |
| 20260505094642 | 9 | 190 | 3.2 | 14.5 | 0.00 | 0.00 | 0.00 | 88 | 1012.5 |
| 20260505094143 | 9 | 190 | 4.8 | 14.5 | 0.00 | 0.00 | 0.00 | 87 | 1012.6 |
| 20260505093644 | 9 | 190 | 8.0 | 14.5 | 0.00 | 0.00 | 0.00 | 86 | 1012.5 |
| 20260505093147 | 9 | 240 | 9.7 | 19.3 | 0.00 | 0.00 | 0.00 | 86 | 1012.7 |
| 20260505093143 | 9 | 227 | 9.7 | 14.5 | 0.00 | 0.00 | 0.00 | 86 | 1012.6 |
| 20260505092145 | 10 | 243 | 14.5 | 19.3 | 0.00 | 0.00 | 0.00 | 85 | 1012.9 |
| 20260505092140 | 10 | 209 | 11.3 | 19.3 | 0.00 | 0.00 | 0.00 | 85 | 1012.8 |
| 20260505091747 | 9 | 254 | 16.1 | 19.3 | 0.00 | 0.00 | 0.00 | 85 | 1013.0 |
| 20260505090640 | 9 | 254 | 16.1 | 20.9 | 0.00 | 0.00 | 0.00 | 86 | 1013.0 |
| 20260505090140 | 9 | 261 | 16.1 | 22.5 | 0.00 | 0.00 | 0.00 | 87 | 1013.0 |
| 20260505085640 | 9 | 265 | 16.1 | 22.5 | 0.00 | 0.00 | 0.00 | 88 | 1013.0 |
| 20260505085140 | 9 | 263 | 12.9 | 19.3 | 0.00 | 0.00 | 0.00 | 90 | 1013.0 |
| 20260505084640 | 9 | 269 | 11.3 | 17.7 | 0.00 | 0.00 | 0.00 | 91 | 1013.1 |
| 20260505084140 | 9 | 290 | 9.7 | 14.5 | 0.00 | 0.00 | 0.00 | 91 | 1013.2 |
| 20260505083640 | 9 | 295 | 12.9 | 17.7 | 0.00 | 0.00 | 0.00 | 90 | 1013.4 |
| 20260505083138 | 9 | 307 | 14.5 | 17.7 | 0.00 | 0.00 | 0.00 | 90 | 1013.4 |
| 20260505082642 | 9 | 302 | 9.7 | 16.1 | 0.00 | 0.00 | 0.00 | 90 | 1013.4 |
| 20260505082638 | 9 | 302 | 12.9 | 17.7 | 0.00 | 0.00 | 0.00 | 89 | 1013.2 |
| 20260505081638 | 9 | 294 | 9.7 | 14.5 | 0.00 | 0.00 | 0.00 | 91 | 1013.4 |
| 20260505081137 | 9 | 304 | 9.7 | 14.5 | 0.00 | 0.00 | 0.00 | 91 | 1013.4 |
| 20260505080637 | 9 | 289 | 11.3 | 19.3 | 0.00 | 0.00 | 0.00 | 91 | 1013.5 |
| 20260505080138 | 9 | 283 | 12.9 | 19.3 | 0.00 | 0.00 | 0.00 | 92 | 1013.5 |
| 20260505075642 | 9 | 277 | 11.3 | 16.1 | 0.00 | 0.00 | 0.00 | 91 | 1013.6 |
| 20260505075638 | 9 | 295 | 12.9 | 17.7 | 0.00 | 0.00 | 0.00 | 91 | 1013.5 |
| 20260505074641 | 9 | 240 | 11.3 | 17.7 | 0.00 | 0.00 | 0.00 | 90 | 1013.6 |
| 20260505074637 | 9 | 229 | 11.3 | 17.7 | 0.00 | 0.00 | 0.00 | 90 | 1013.6 |
| 20260505073637 | 9 | 246 | 11.3 | 17.7 | 0.00 | 0.00 | 0.00 | 91 | 1013.7 |
| 20260505073138 | 9 | 257 | 12.9 | 17.7 | 0.00 | 0.00 | 0.00 | 92 | 1013.7 |
| 20260505072638 | 9 | 244 | 12.9 | 17.7 | 0.00 | 0.00 | 0.00 | 92 | 1013.7 |
| 20260505072136 | 9 | 259 | 12.9 | 20.9 | 0.00 | 0.00 | 0.00 | 93 | 1013.7 |
| 20260505071636 | 9 | 350 | 12.9 | 20.9 | 0.00 | 0.00 | 0.00 | 93 | 1013.7 |
| 20260505071135 | 9 | 300 | 12.9 | 22.5 | 0.00 | 0.00 | 0.00 | 94 | 1013.7 |
| 20260505070635 | 9 | 251 | 14.5 | 22.5 | 0.00 | 0.00 | 0.00 | 94 | 1013.7 |
| 20260505070140 | 9 | 246 | 17.7 | 24.1 | 0.00 | 0.00 | 0.00 | 94 | 1013.6 |
| 20260505070136 | 9 | 252 | 16.1 | 24.1 | 0.00 | 0.00 | 0.00 | 94 | 1013.6 |
| 20260505065135 | 9 | 254 | 17.7 | 24.1 | 0.00 | 0.00 | 0.00 | 94 | 1013.5 |
| 20260505064745 | 9 | 263 | 14.5 | 19.3 | 0.00 | 0.00 | 0.00 | 94 | 1013.7 |
| 20260505064635 | 9 | 252 | 17.7 | 24.1 | 0.00 | 0.00 | 0.00 | 94 | 1013.6 |
| 20260505064140 | 9 | 263 | 16.1 | 20.9 | 0.00 | 0.00 | 0.00 | 94 | 1013.7 |
| 20260505064135 | 9 | 243 | 16.1 | 24.1 | 0.00 | 0.00 | 0.00 | 94 | 1013.6 |
| 20260505062635 | 9 | 328 | 12.9 | 19.3 | 0.00 | 0.00 | 0.00 | 93 | 1013.7 |
| 20260505062136 | 9 | 292 | 8.0 | 17.7 | 0.00 | 0.00 | 0.00 | 93 | 1013.8 |
| 20260505061636 | 10 | 276 | 6.4 | 11.3 | 0.00 | 0.00 | 0.00 | 93 | 1013.8 |
| 20260505061135 | 10 | 279 | 6.4 | 12.9 | 0.00 | 0.00 | 0.00 | 92 | 1013.8 |
| 20260505060633 | 10 | 273 | 4.8 | 12.9 | 0.00 | 0.00 | 0.00 | 92 | 1013.8 |
| 20260505060133 | 10 | 266 | 4.8 | 9.7 | 0.00 | 0.00 | 0.00 | 91 | 1013.8 |
| 20260505055633 | 10 | 319 | 3.2 | 9.7 | 0.00 | 0.00 | 0.00 | 91 | 1013.8 |
| 20260505055133 | 10 | 286 | 3.2 | 9.7 | 0.00 | 0.00 | 0.00 | 90 | 1013.8 |
| 20260505054633 | 10 | 288 | 1.6 | 6.4 | 0.00 | 0.00 | 0.00 | 90 | 1013.8 |
| 20260505054131 | 10 | 255 | 3.2 | 9.7 | 0.00 | 0.00 | 0.00 | 89 | 1013.7 |
| 20260505053633 | 10 | 230 | 4.8 | 9.7 | 0.00 | 0.00 | 0.00 | 88 | 1013.7 |
| 20260505053131 | 10 | 266 | 3.2 | 9.7 | 0.00 | 0.00 | 0.00 | 88 | 1013.8 |
| 20260505052631 | 10 | 274 | 3.2 | 9.7 | 0.00 | 0.00 | 0.00 | 90 | 1013.9 |
| 20260505052131 | 10 | 286 | 3.2 | 6.4 | 0.00 | 0.00 | 0.00 | 90 | 1013.9 |
| 20260505051632 | 10 | 275 | 1.6 | 6.4 | 0.00 | 0.00 | 0.00 | 89 | 1013.9 |
| 20260505051131 | 10 | 275 | 1.6 | 6.4 | 0.00 | 0.00 | 0.00 | 89 | 1013.9 |
| 20260505050631 | 10 | 275 | 1.6 | 11.3 | 0.00 | 0.00 | 0.00 | 90 | 1013.9 |
| 20260505050130 | 10 | 275 | 1.6 | 11.3 | 0.00 | 0.00 | 0.00 | 91 | 1013.8 |
| 20260505041629 | 10 | 273 | 8.0 | 14.5 | 0.00 | 0.00 | 0.00 | 92 | 1014.0 |
| 20260505041127 | 10 | 257 | 4.8 | 11.3 | 0.00 | 0.00 | 0.00 | 92 | 1014.0 |
| 20260505040627 | 10 | 261 | 4.8 | 9.7 | 0.00 | 0.00 | 0.00 | 92 | 1014.0 |
| 20260505040132 | 10 | 312 | 4.8 | 8.0 | 0.00 | 0.00 | 0.00 | 93 | 1014.1 |
| 20260505040127 | 10 | 279 | 4.8 | 9.7 | 0.00 | 0.00 | 0.00 | 92 | 1014.0 |
| 20260505035734 | 10 | 300 | 4.8 | 8.0 | 0.00 | 0.00 | 0.00 | 93 | 1014.0 |
| 20260505034627 | 10 | 297 | 3.2 | 8.0 | 0.00 | 0.00 | 0.00 | 94 | 1014.0 |
| 20260505034127 | 10 | 238 | 4.8 | 8.0 | 0.00 | 0.00 | 0.00 | 94 | 1013.9 |